Skip Page Navigation
NASA JPL Caltech
NASA Logo - Jet Propulsion Laboratory + View the NASA Portal
+ Near-Earth Object (NEO) Program
Search JPL
JPL Home Earth Solar System Stars & Galaxies Technology
JPL Solar System Dynamics
BODIES ORBITS EPHEMERIDES TOOLS PHYSICAL DATA DISCOVERY FAQ SITE MAP
JPL Small-Body Database Browser
Search: [ help ]  
11130 (1996 VA30)
Classification: Main-belt Asteroid          SPK-ID: 2011130
Ephemeris | Orbit Diagram | Orbital Elements | Physical Parameters | Discovery Circumstances ]

[ show orbit diagram ]
Orbital Elements at Epoch 2456400.5 (2013-Apr-18.0) TDB
Reference: JPL 1 (heliocentric ecliptic J2000)
 Element Value Uncertainty (1-sigma)   Units 
e .1569203853936323 9.2592e-08  
a 2.403090384547019 2.3202e-08 AU
q 2.025996515268169 2.1472e-07 AU
i 12.85184058003398 9.9046e-06 deg
node 216.2015857747239 3.0248e-05 deg
peri 161.9270691732677 3.8619e-05 deg
M 169.7004450573854 2.6263e-05 deg
tp 2455759.092452557863
(2011-Jul-16.59245256)
9.5085e-05 JED
period 1360.672430771096
3.73
1.9706e-05
5.395e-08
d
yr
n .264575067340776 3.8317e-09 deg/d
Q 2.780184253825869 2.6843e-08 AU
  Orbit Determination Parameters
   # obs. used (total)      537  
   data-arc span      11488 days (31.45 yr)  
   first obs. used      1981-10-24  
   last obs. used      2013-04-07  
   planetary ephem.      DE405  
   SB-pert. ephem.      SB405-CPV-2  
   condition code      0  
   fit RMS      .59467  
   data source      ORB  
   producer      Otto Matic  
   solution date      2013-Apr-29 13:43:14  

Additional Information
 Earth MOID = 1.03226 AU 
 T_jup = 3.474 
[ show covariance matrix ]

Ephemeris | Orbit Diagram | Orbital Elements | Physical Parameters | Discovery Circumstances ]

Physical Parameter Table
Parameter Symbol Value Units Sigma Reference Notes
absolute magnitude H 14.3 mag n/a PDS3 (MPC 35245)  

11130 (1996 VA30)          Discovered 1996-Nov-07 by Ueda, S., Kaneda, H. at Kushiro (399)
Reference: 19990728/Numbers.arcLast Updated: 2004-04-19

Alternate Designations
 1996 VA30 = 1981 UU 
Ephemeris | Orbit Diagram | Orbital Elements | Physical Parameters | Discovery Circumstances ]
ABOUT SSD CREDITS/AWARDS PRIVACY/COPYRIGHT GLOSSARY LINKS
FirstGov 2013-May-24 16:31 UT
(server date/time)  
NASA Home Page
Site Manager:   Donald K. Yeomans
Webmaster  Alan B. Chamberlin